Clearfield, PA

12:36 AM EDT on August 22, 2017 (GMT -0400)
Clearfield-Lawrence

Weather History for KFIG - November, 2012

Change the Weather History Date:

Wednesday, November 7, 2012

  Actual Average (KDUJ) Record (KDUJ)
Temperature  
Mean Temperature 33 °F -  
Max Temperature 43 °F 45 °F 69 °F (1975)
Min Temperature 23 °F 33 °F 19 °F (1967)
Degree Days  
Heating Degree Days 32    
Moisture  
Dew Point 17 °F    
Average Humidity 59    
Maximum Humidity 88    
Minimum Humidity 28    
Precipitation  
Precipitation 0.00 in - - ()
Sea Level Pressure  
Sea Level Pressure 30.02 in    
Wind  
Wind Speed 6 mph (NNE)    
Max Wind Speed 8 mph    
Max Gust Speed -    
Visibility 10 miles    
Events      
Averages and records for this station are not official NWS values.
T = Trace of Precipitation, MM = Missing Value Source: NWS Daily Summary

Daily Weather History Graph

Daily Weather History Graph

Search for Another Location

Airport or City:

Trip Planner

Search our weather history database for the weather conditions in past years. The results will help you decide how hot, cold, wet, or windy it might be!

Date:

Astronomy

Nov. 07, 2012 Rise Set
Actual Time 6:52 AM EST 5:01 PM EST
Civil Twilight 6:23 AM EST 5:30 PM EST
Nautical Twilight 5:50 AM EST 6:03 PM EST
Astronomical Twilight 5:18 AM EST 6:35 PM EST
Moon No Moon Rise 1:13 PM EST (11/7)
Length of Visible Light 11h 07m
Length of Day
10h 09m
Last Quarter, 43% of the Moon is Illuminated
Nov 7
Last Quarter
Nov 13
New
Nov 20
First Quarter
Nov 28
Full
Dec 6
Last Quarter

Hourly Weather History & Observations

Time (EST) Temp. Windchill Dew Point Humidity Pressure Visibility Wind Dir Wind Speed Gust Speed Precip Events Conditions
12:54 AM 25.0 °F 17.1 °F 19.9 °F 81% 30.04 in 10.0 mi North 6.9 mph - N/A   Clear
1:54 AM 24.1 °F 15.2 °F 19.9 °F 84% 30.04 in 10.0 mi NE 8.1 mph - N/A   Clear
2:54 AM 25.0 °F 17.1 °F 21.0 °F 85% 30.02 in 10.0 mi ENE 6.9 mph - N/A   Clear
3:54 AM 24.1 °F 16.0 °F 19.9 °F 84% 30.01 in 10.0 mi NE 6.9 mph - N/A   Clear
4:54 AM 23.0 °F 17.0 °F 19.9 °F 88% 30.00 in 10.0 mi NE 4.6 mph - N/A   Clear
5:54 AM 26.1 °F 19.4 °F 21.0 °F 81% 30.01 in 10.0 mi East 5.8 mph - N/A   Clear
6:54 AM 25.0 °F 17.1 °F 21.0 °F 85% 30.02 in 10.0 mi NNE 6.9 mph - N/A   Clear
7:54 AM 26.1 °F 20.5 °F 21.9 °F 84% 30.04 in 10.0 mi NE 4.6 mph - N/A   Clear
8:54 AM 28.0 °F 21.7 °F 21.9 °F 78% 30.06 in 10.0 mi ENE 5.8 mph - N/A   Clear
9:54 AM 30.9 °F 26.2 °F 21.9 °F 69% 30.04 in 10.0 mi NE 4.6 mph - N/A   Clear
10:54 AM 33.1 °F 27.7 °F 19.9 °F 59% 30.03 in 10.0 mi NE 5.8 mph - N/A   Clear
11:54 AM 35.1 °F 32.2 °F 15.1 °F 44% 30.00 in 10.0 mi Variable 3.5 mph - N/A   Clear
12:54 PM 39.0 °F 35.7 °F 15.1 °F 38% 29.98 in 10.0 mi Variable 4.6 mph - N/A   Clear
1:54 PM 42.1 °F 39.2 °F 12.0 °F 29% 29.96 in 10.0 mi NE 4.6 mph - N/A   Clear
2:54 PM 43.0 °F 41.3 °F 14.0 °F 31% 29.96 in 10.0 mi Variable 3.5 mph - N/A   Clear
3:54 PM 42.1 °F 38.4 °F 10.9 °F 28% 29.99 in 10.0 mi NNE 5.8 mph - N/A   Clear
4:54 PM 39.9 °F 36.7 °F 10.9 °F 31% 30.00 in 10.0 mi NNE 4.6 mph - N/A   Clear
5:54 PM 37.9 °F 32.7 °F 12.9 °F 36% 30.01 in 10.0 mi North 6.9 mph - N/A   Clear
6:54 PM 35.1 °F 30.1 °F 14.0 °F 42% 30.02 in 10.0 mi North 5.8 mph - N/A   Clear
7:54 PM 33.1 °F 26.9 °F 14.0 °F 46% 30.03 in 10.0 mi North 6.9 mph - N/A   Clear
8:54 PM 33.1 °F 28.7 °F 15.1 °F 48% 30.04 in 10.0 mi NNE 4.6 mph - N/A   Clear
9:54 PM 32.0 °F 27.5 °F 16.0 °F 52% 30.04 in 10.0 mi NNE 4.6 mph - N/A   Clear
10:54 PM 30.0 °F 26.5 °F 17.1 °F 59% 30.04 in 10.0 mi North 3.5 mph - N/A   Clear
11:54 PM 28.0 °F 21.7 °F 17.1 °F 63% 30.03 in 10.0 mi North 5.8 mph - N/A   Clear